Location: Taio
(46.3224°N, 11.0658°E)
Time: 07:18:27
(UTC+01:00)

ISS - Visible Passes

Search period start: 19 February 2019 00:00
Search period end: 01 March 2019 00:00
Orbit: 403 x 411 km, 51.6° (Epoch: 19 February)

Date Brightness Start Highest point End Pass type
(mag) Time Alt. Az. Time Alt. Az. Time Alt. Az.
23 Feb -1.8 06:33:03 10° SSW 06:35:56 29° SE 06:38:50 10° E visible
24 Feb -1.1 05:42:20 10° S 05:44:36 18° SE 05:46:52 10° E visible
25 Feb -0.7 04:53:00 10° SE 04:53:19 10° SE 04:53:37 10° SE visible
25 Feb -3.4 06:26:02 10° SW 06:29:16 63° SSE 06:32:30 10° ENE visible
26 Feb -2.5 05:35:38 16° SSW 05:37:48 37° SE 05:40:52 10° ENE visible
27 Feb -1.7 04:46:29 22° SE 04:46:29 22° SE 04:49:01 10° E visible
27 Feb -3.8 06:19:26 10° WSW 06:22:41 67° NNW 06:25:57 10° ENE visible
28 Feb -3.8 05:29:55 36° SW 05:31:06 79° SSE 05:34:23 10° ENE visible
